Abeid Amani Karume International Airport

Airport
ICAO code: 
HTZA
IATA Code: 
ZNZ
Summary
ICAO Region: 
AFI
Territory: 
Location: 
Zanzibar City, Unguja Airport
Serving: 
Zanzibar
Elevation: 
54 ft
Coordinates: 
Aerial View: 
6° 13' 19.992" S, 39° 13' 30" E
Metar
Observation
HTZA 261100Z 02015KT 9999 BKN019 29/23 Q1010 NOSIG
Station
Zanzibar / Kisauni
Date/Time
2022-01-26 11:00:00
Wind direction
20°
Wind speed
15 kts
Lowest cloud amount
broken clouds
Temperature
29°C
Dew point
23°C
Humidity
70%
QNH
1010 hPa
Weather condition
n/a

Abeid Amani Karume International Airport is the main airport in the Zanzibar Archipelago located on Unguja Island. It was previously known as Kisauni Airport and Zanzibar International Airport.

Climatology

Tropical rainforest climate (Köppen climate classification Af)

Runways

Designator Length Width Surface Rops
18/36 2462 45 ASP Yes/Yes
Airport map: 
Aerial View: 

SKYbrary Partners:

Safety knowledge contributed by: